Location: Mt Eden
(36.8781°S, 174.7645°E)
Time: 17:25:24
(UTC+13:00)

ISS - Visible Passes

Search period start: 16 October 2019 00:00
Search period end: 26 October 2019 00:00
Orbit: 411 x 421 km, 51.6° (Epoch: 16 October)

Date Brightness Start Highest point End Pass type
(mag) Time Alt. Az. Time Alt. Az. Time Alt. Az.
16 Oct -2.8 05:06:39 10° SW 05:09:56 49° SE 05:13:15 10° ENE visible
17 Oct -1.8 04:21:00 29° SSE 04:21:16 29° SSE 04:24:20 10° E visible
17 Oct -2.7 05:54:59 10° WSW 05:57:58 27° NW 06:00:54 10° NNE visible
17 Oct -2.0 20:59:09 10° NNW 21:00:31 19° N 21:00:31 19° N visible
18 Oct -3.6 05:08:51 44° W 05:09:30 52° NW 05:12:49 10° NNE visible
18 Oct -2.0 20:11:34 10° NNE 20:13:42 16° NE 20:15:52 10° E visible
18 Oct -2.2 21:46:54 10° WNW 21:49:13 35° W 21:49:13 35° W visible
19 Oct -0.8 04:24:15 11° NE 04:24:15 11° NE 04:24:23 10° NE visible
19 Oct -3.8 20:58:12 10° NW 21:01:33 83° SW 21:04:26 14° SE visible
19 Oct -0.3 22:36:48 10° WSW 22:37:26 12° SW 22:37:26 12° SW visible
20 Oct -3.5 20:09:47 10° NNW 20:13:03 50° NE 20:16:21 10° ESE visible
20 Oct -1.1 21:47:24 10° WSW 21:49:59 20° SSW 21:52:07 12° SSE visible
21 Oct -1.7 20:58:14 10° W 21:01:15 30° SSW 21:04:19 10° SSE visible
22 Oct -2.7 20:09:20 10° WNW 20:12:37 49° SW 20:15:56 10° SE visible
22 Oct -0.5 21:48:52 10° SW 21:50:01 11° SSW 21:51:10 10° S visible
23 Oct -0.8 20:59:07 10° WSW 21:01:11 15° SSW 21:03:15 10° SSE visible
24 Oct -1.1 20:09:45 10° W 20:12:25 21° SSW 20:15:05 10° SSE visible
